| time (UTC) | temp F | wind direction | speed MPH | gust MPH | rain 1hr in | rain 24hr in | rain mn in | humidity % | barometer mb |
| 20260831160209 | 96 | 135 | 2.0 | 4.0 | 0.00 | 0.00 | 0.00 | 35 | 1019.8 |
| 20260831155124 | 95 | 180 | 4.0 | 6.0 | 0.00 | 0.00 | 0.00 | 36 | 1019.7 |
| 20260831154148 | 94 | 90 | 1.0 | 2.0 | 0.00 | 0.00 | 0.00 | 35 | 1019.9 |
| 20260831153125 | 93 | 135 | 2.0 | 3.0 | 0.00 | 0.00 | 0.00 | 38 | 1019.9 |
| 20260831152149 | 92 | 135 | 3.0 | 4.0 | 0.00 | 0.00 | 0.00 | 40 | 1019.6 |
| 20260831151124 | 91 | 225 | 2.0 | 3.0 | 0.00 | 0.00 | 0.00 | 41 | 1019.8 |
| 20260831150148 | 90 | 225 | 1.0 | 1.0 | 0.00 | 0.00 | 0.00 | 49 | 1019.6 |
| 20260831145124 | 89 | 180 | 3.0 | 4.0 | 0.00 | 0.00 | 0.00 | 50 | 1019.7 |
| 20260831144148 | 88 | 0.0 | 1.0 | 0.00 | 0.00 | 0.00 | 52 | 1019.6 | |
| 20260831143125 | 88 | 0.0 | 1.0 | 0.00 | 0.00 | 0.00 | 53 | 1019.8 | |
| 20260831142209 | 87 | 90 | 1.0 | 2.0 | 0.00 | 0.00 | 0.00 | 57 | 1019.7 |
| 20260831141124 | 86 | 270 | 1.0 | 3.0 | 0.00 | 0.00 | 0.00 | 59 | 1019.7 |
| 20260831140148 | 85 | 0.0 | 1.0 | 0.00 | 0.00 | 0.00 | 62 | 1019.8 | |
| 20260831135125 | 83 | 45 | 1.0 | 2.0 | 0.00 | 0.00 | 0.00 | 62 | 1019.5 |
| 20260831134149 | 82 | 90 | 1.0 | 1.0 | 0.00 | 0.00 | 0.00 | 66 | 1019.6 |
| 20260831133125 | 81 | 0.0 | 1.0 | 0.00 | 0.00 | 0.00 | 71 | 1019.3 | |
| 20260831132148 | 79 | 0.0 | 0.0 | 0.00 | 0.00 | 0.00 | 73 | 1019.1 | |
| 20260831131124 | 77 | 0.0 | 0.0 | 0.00 | 0.00 | 0.00 | 75 | 1019.0 | |
| 20260831130148 | 76 | 0.0 | 0.0 | 0.00 | 0.00 | 0.00 | 78 | 1018.7 | |
| 20260831125124 | 74 | 0.0 | 0.0 | 0.00 | 0.00 | 0.00 | 78 | 1018.6 | |
| 20260831124148 | 73 | 0.0 | 0.0 | 0.00 | 0.00 | 0.00 | 78 | 1018.6 | |
| 20260831123125 | 73 | 0.0 | 0.0 | 0.00 | 0.00 | 0.00 | 77 | 1018.5 | |
| 20260831122149 | 73 | 0.0 | 0.0 | 0.00 | 0.00 | 0.00 | 77 | 1018.1 | |
| 20260831121124 | 73 | 0.0 | 0.0 | 0.00 | 0.00 | 0.00 | 76 | 1018.2 | |
| 20260831120208 | 73 | 0.0 | 0.0 | 0.00 | 0.00 | 0.00 | 75 | 1017.8 | |
| 20260831115124 | 73 | 0.0 | 0.0 | 0.00 | 0.00 | 0.00 | 75 | 1017.9 | |
| 20260831114209 | 73 | 0.0 | 0.0 | 0.00 | 0.00 | 0.00 | 74 | 1017.7 | |
| 20260831113124 | 73 | 0.0 | 0.0 | 0.00 | 0.00 | 0.00 | 74 | 1017.7 | |
| 20260831112148 | 73 | 0.0 | 0.0 | 0.00 | 0.00 | 0.00 | 73 | 1017.7 | |
| 20260831111124 | 73 | 0.0 | 0.0 | 0.00 | 0.00 | 0.00 | 72 | 1017.4 | |
| 20260831110209 | 74 | 0.0 | 0.0 | 0.00 | 0.00 | 0.00 | 72 | 1017.3 | |
| 20260831105125 | 74 | 0.0 | 0.0 | 0.00 | 0.00 | 0.00 | 71 | 1017.3 | |
| 20260831104148 | 74 | 0.0 | 0.0 | 0.00 | 0.00 | 0.00 | 71 | 1017.3 | |
| 20260831103144 | 74 | 0.0 | 0.0 | 0.00 | 0.00 | 0.00 | 71 | 1017.4 | |
| 20260831102149 | 74 | 0.0 | 0.0 | 0.00 | 0.00 | 0.00 | 70 | 1017.4 | |
| 20260831101124 | 74 | 0.0 | 0.0 | 0.00 | 0.00 | 0.00 | 70 | 1017.4 | |
| 20260831100148 | 74 | 0.0 | 0.0 | 0.00 | 0.00 | 0.00 | 70 | 1017.5 | |
| 20260831095124 | 75 | 0.0 | 1.0 | 0.00 | 0.00 | 0.00 | 70 | 1017.4 | |
| 20260831094148 | 75 | 0.0 | 0.0 | 0.00 | 0.00 | 0.00 | 70 | 1017.3 | |
| 20260831093124 | 76 | 90 | 1.0 | 1.0 | 0.00 | 0.00 | 0.00 | 70 | 1017.2 |
| 20260831092148 | 76 | 90 | 1.0 | 1.0 | 0.00 | 0.00 | 0.00 | 66 | 1017.2 |
| 20260831091145 | 77 | 0.0 | 0.0 | 0.00 | 0.00 | 0.00 | 66 | 1016.9 | |
| 20260831090149 | 76 | 0.0 | 0.0 | 0.00 | 0.00 | 0.00 | 67 | 1016.8 | |
| 20260831085124 | 76 | 0.0 | 0.0 | 0.00 | 0.00 | 0.00 | 67 | 1016.9 | |
| 20260831084148 | 76 | 0.0 | 1.0 | 0.00 | 0.00 | 0.00 | 69 | 1016.7 | |
| 20260831083124 | 75 | 0.0 | 0.0 | 0.00 | 0.00 | 0.00 | 70 | 1016.8 | |
| 20260831082148 | 74 | 0.0 | 0.0 | 0.00 | 0.00 | 0.00 | 71 | 1016.8 | |
| 20260831081124 | 74 | 0.0 | 0.0 | 0.00 | 0.00 | 0.00 | 72 | 1017.0 | |
| 20260831080148 | 75 | 0.0 | 1.0 | 0.00 | 0.00 | 0.00 | 72 | 1016.6 | |
| 20260831075124 | 75 | 90 | 1.0 | 2.0 | 0.00 | 0.00 | 0.00 | 71 | 1016.5 |
| 20260831074148 | 74 | 0.0 | 0.0 | 0.00 | 0.00 | 0.00 | 71 | 1016.7 | |
| 20260831073144 | 75 | 0.0 | 0.0 | 0.00 | 0.00 | 0.00 | 70 | 1016.6 | |
| 20260831072209 | 75 | 0.0 | 0.0 | 0.00 | 0.00 | 0.00 | 70 | 1016.5 | |
| 20260831071125 | 75 | 0.0 | 0.0 | 0.00 | 0.00 | 0.00 | 70 | 1016.7 | |
| 20260831070149 | 75 | 0.0 | 0.0 | 0.00 | 0.00 | 0.00 | 70 | 1016.6 | |
| 20260831065124 | 76 | 0.0 | 0.0 | 0.00 | 0.00 | 0.00 | 68 | 1016.6 | |
| 20260831064149 | 76 | 0.0 | 0.0 | 0.00 | 0.00 | 0.00 | 68 | 1016.7 | |
| 20260831063144 | 76 | 0.0 | 0.0 | 0.00 | 0.00 | 0.00 | 68 | 1016.8 | |
| 20260831062209 | 76 | 0.0 | 0.0 | 0.00 | 0.00 | 0.00 | 67 | 1016.8 | |
| 20260831061124 | 77 | 0.0 | 0.0 | 0.00 | 0.00 | 0.00 | 64 | 1016.7 | |
| 20260831060148 | 77 | 0.0 | 0.0 | 0.00 | 0.00 | 0.00 | 64 | 1016.6 | |
| 20260831055145 | 78 | 0.0 | 0.0 | 0.00 | 0.00 | 0.00 | 64 | 1016.9 | |
| 20260831054209 | 78 | 0.0 | 0.0 | 0.00 | 0.00 | 0.00 | 64 | 1016.7 | |
| 20260831053124 | 78 | 0.0 | 0.0 | 0.00 | 0.00 | 0.00 | 63 | 1016.7 | |
| 20260831052209 | 78 | 0.0 | 0.0 | 0.00 | 0.00 | 0.00 | 63 | 1016.6 | |
| 20260831051125 | 78 | 0.0 | 0.0 | 0.00 | 0.00 | 0.00 | 62 | 1016.6 | |
| 20260831050209 | 78 | 0.0 | 0.0 | 0.00 | 0.00 | 0.00 | 61 | 1016.5 | |
| 20260831045124 | 78 | 0.0 | 0.0 | 0.00 | 0.00 | 0.00 | 61 | 1016.6 | |
| 20260831044148 | 79 | 0.0 | 0.0 | 0.00 | 0.00 | 0.00 | 60 | 1016.5 | |
| 20260831043145 | 79 | 0.0 | 0.0 | 0.00 | 0.00 | 0.00 | 60 | 1016.6 | |
| 20260831042148 | 80 | 0.0 | 0.0 | 0.00 | 0.00 | 0.00 | 58 | 1016.4 | |
| 20260831041124 | 80 | 0.0 | 0.0 | 0.00 | 0.00 | 0.00 | 58 | 1016.4 | |
| 20260831040148 | 80 | 0.0 | 0.0 | 0.00 | 0.00 | 0.00 | 57 | 1016.5 | |
| 20260831035125 | 80 | 0.0 | 0.0 | 0.00 | 0.00 | 0.00 | 58 | 1016.5 | |
| 20260831034148 | 79 | 0.0 | 0.0 | 0.00 | 0.00 | 0.00 | 58 | 1016.4 | |
| 20260831033125 | 80 | 0.0 | 0.0 | 0.00 | 0.00 | 0.00 | 58 | 1016.4 | |
| 20260831032148 | 80 | 0.0 | 0.0 | 0.00 | 0.00 | 0.00 | 56 | 1016.2 | |
| 20260831031124 | 81 | 0.0 | 0.0 | 0.00 | 0.00 | 0.00 | 54 | 1016.1 | |
| 20260831030148 | 81 | 0.0 | 0.0 | 0.00 | 0.00 | 0.00 | 53 | 1016.3 | |
| 20260831025124 | 81 | 0.0 | 0.0 | 0.00 | 0.00 | 0.00 | 53 | 1016.1 | |
| 20260831024148 | 82 | 0.0 | 0.0 | 0.00 | 0.00 | 0.00 | 50 | 1016.1 | |
| 20260831023124 | 82 | 0.0 | 0.0 | 0.00 | 0.00 | 0.00 | 49 | 1016.0 | |
| 20260831022149 | 82 | 0.0 | 0.0 | 0.00 | 0.00 | 0.00 | 48 | 1015.9 | |
| 20260831021124 | 83 | 0.0 | 0.0 | 0.00 | 0.00 | 0.00 | 47 | 1015.6 | |
| 20260831020149 | 84 | 0.0 | 0.0 | 0.00 | 0.00 | 0.00 | 45 | 1015.6 | |
| 20260831015125 | 84 | 0.0 | 0.0 | 0.00 | 0.00 | 0.00 | 44 | 1015.4 | |
| 20260831014149 | 85 | 0.0 | 0.0 | 0.00 | 0.00 | 0.00 | 43 | 1015.2 | |
| 20260831013124 | 86 | 0.0 | 0.0 | 0.00 | 0.00 | 0.00 | 42 | 1015.2 | |
| 20260831012209 | 87 | 0.0 | 0.0 | 0.00 | 0.00 | 0.00 | 41 | 1015.0 | |
| 20260831011144 | 88 | 0.0 | 0.0 | 0.00 | 0.00 | 0.00 | 40 | 1015.0 | |
| 20260831010330 | 89 | 0.0 | 0.0 | 0.00 | 0.00 | 0.00 | 40 | 1015.0 | |
| 20260831005124 | 91 | 0.0 | 0.0 | 0.00 | 0.00 | 0.00 | 34 | 1014.8 | |
| 20260831004148 | 92 | 0.0 | 0.0 | 0.00 | 0.00 | 0.00 | 32 | 1015.0 | |
| 20260831003124 | 94 | 0.0 | 0.0 | 0.00 | 0.00 | 0.00 | 31 | 1015.1 | |
| 20260831002148 | 96 | 135 | 1.0 | 1.0 | 0.00 | 0.00 | 0.00 | 31 | 1015.1 |
| 20260831001125 | 97 | 135 | 1.0 | 1.0 | 0.00 | 0.00 | 0.00 | 30 | 1015.1 |
| 20260831000149 | 98 | 135 | 2.0 | 3.0 | 0.00 | 0.00 | 0.00 | 30 | 1015.1 |
| 20260830235124 | 99 | 225 | 2.0 | 3.0 | 0.00 | 0.00 | 0.00 | 29 | 1015.1 |
| 20260830234148 | 100 | 90 | 2.0 | 3.0 | 0.00 | 0.00 | 0.00 | 24 | 1015.3 |
| 20260830233145 | 100 | 180 | 1.0 | 1.0 | 0.00 | 0.00 | 0.00 | 24 | 1015.3 |
| 20260830232148 | 100 | 135 | 1.0 | 2.0 | 0.00 | 0.00 | 0.00 | 23 | 1015.1 |
| 20260830231124 | 101 | 90 | 1.0 | 2.0 | 0.00 | 0.00 | 0.00 | 23 | 1015.2 |
| 20260830230148 | 101 | 225 | 3.0 | 4.0 | 0.00 | 0.00 | 0.00 | 23 | 1015.3 |
| 20260830225125 | 101 | 180 | 3.0 | 5.0 | 0.00 | 0.00 | 0.00 | 22 | 1015.3 |
| 20260830224148 | 102 | 180 | 5.0 | 7.0 | 0.00 | 0.00 | 0.00 | 22 | 1015.4 |
| 20260830223125 | 102 | 180 | 2.0 | 3.0 | 0.00 | 0.00 | 0.00 | 22 | 1015.5 |
| 20260830222148 | 102 | 135 | 2.0 | 3.0 | 0.00 | 0.00 | 0.00 | 22 | 1015.5 |
| 20260830221125 | 102 | 225 | 3.0 | 5.0 | 0.00 | 0.00 | 0.00 | 22 | 1015.3 |
| 20260830220148 | 103 | 90 | 1.0 | 3.0 | 0.00 | 0.00 | 0.00 | 22 | 1015.4 |
| 20260830215145 | 102 | 225 | 5.0 | 7.0 | 0.00 | 0.00 | 0.00 | 21 | 1015.4 |
| 20260830214148 | 103 | 180 | 2.0 | 3.0 | 0.00 | 0.00 | 0.00 | 21 | 1015.5 |
| 20260830213145 | 103 | 90 | 1.0 | 2.0 | 0.00 | 0.00 | 0.00 | 22 | 1015.5 |
| 20260830212148 | 102 | 225 | 2.0 | 3.0 | 0.00 | 0.00 | 0.00 | 22 | 1015.9 |
| 20260830211124 | 102 | 90 | 3.0 | 5.0 | 0.00 | 0.00 | 0.00 | 25 | 1016.0 |
| 20260830210209 | 102 | 180 | 6.0 | 8.0 | 0.00 | 0.00 | 0.00 | 23 | 1016.0 |
| 20260830205145 | 101 | 135 | 3.0 | 5.0 | 0.00 | 0.00 | 0.00 | 25 | 1015.8 |
| 20260830204148 | 102 | 45 | 1.0 | 2.0 | 0.00 | 0.00 | 0.00 | 24 | 1016.2 |
| 20260830203124 | 103 | 68 | 4.0 | 5.0 | 0.00 | 0.00 | 0.00 | 25 | 1016.4 |
| 20260830202148 | 102 | 180 | 5.0 | 7.0 | 0.00 | 0.00 | 0.00 | 26 | 1016.4 |
| 20260830201124 | 102 | 135 | 3.0 | 4.0 | 0.00 | 0.00 | 0.00 | 28 | 1016.6 |
| 20260830200209 | 100 | 68 | 3.0 | 3.0 | 0.00 | 0.00 | 0.00 | 30 | 1016.9 |
| 20260830195124 | 101 | 135 | 2.0 | 3.0 | 0.00 | 0.00 | 0.00 | 28 | 1017.0 |
| 20260830194149 | 103 | 90 | 2.0 | 3.0 | 0.00 | 0.00 | 0.00 | 27 | 1017.1 |
| 20260830193124 | 103 | 135 | 5.0 | 6.0 | 0.00 | 0.00 | 0.00 | 28 | 1017.1 |
| 20260830192148 | 102 | 225 | 3.0 | 4.0 | 0.00 | 0.00 | 0.00 | 27 | 1017.4 |
| 20260830191124 | 103 | 180 | 5.0 | 7.0 | 0.00 | 0.00 | 0.00 | 26 | 1017.4 |
| 20260830190148 | 102 | 270 | 3.0 | 5.0 | 0.00 | 0.00 | 0.00 | 27 | 1017.4 |
| 20260830185125 | 101 | 180 | 3.0 | 4.0 | 0.00 | 0.00 | 0.00 | 29 | 1017.6 |
| 20260830184148 | 101 | 158 | 2.0 | 4.0 | 0.00 | 0.00 | 0.00 | 30 | 1017.7 |
| 20260830183125 | 100 | 90 | 3.0 | 4.0 | 0.00 | 0.00 | 0.00 | 30 | 1017.7 |
| 20260830182149 | 101 | 45 | 1.0 | 3.0 | 0.00 | 0.00 | 0.00 | 31 | 1017.9 |
| 20260830181145 | 101 | 270 | 3.0 | 5.0 | 0.00 | 0.00 | 0.00 | 31 | 1018.0 |
| 20260830180149 | 100 | 180 | 3.0 | 3.0 | 0.00 | 0.00 | 0.00 | 31 | 1017.9 |
| 20260830175145 | 100 | 135 | 4.0 | 5.0 | 0.00 | 0.00 | 0.00 | 31 | 1018.1 |
| 20260830174000 | 100 | 135 | 3.0 | 4.0 | 0.00 | 0.00 | 0.00 | 32 | 1018.3 |
| 20260830172638 | 99 | 315 | 1.0 | 2.0 | 0.00 | 0.00 | 0.00 | 37 | 1018.7 |
| 20260830171614 | 98 | 90 | 2.0 | 3.0 | 0.00 | 0.00 | 0.00 | 35 | 1018.7 |
| 20260830170638 | 98 | 315 | 4.0 | 8.0 | 0.00 | 0.00 | 0.00 | 38 | 1019.0 |
| 20260830165614 | 98 | 90 | 3.0 | 4.0 | 0.00 | 0.00 | 0.00 | 39 | 1019.2 |
| 20260830164638 | 97 | 270 | 1.0 | 3.0 | 0.00 | 0.00 | 0.00 | 40 | 1019.1 |
| 20260830163614 | 97 | 225 | 3.0 | 4.0 | 0.00 | 0.00 | 0.00 | 40 | 1019.2 |
| 20260830162638 | 97 | 225 | 1.0 | 3.0 | 0.00 | 0.00 | 0.00 | 39 | 1019.3 |
| 20260830161614 | 96 | 180 | 2.0 | 3.0 | 0.00 | 0.00 | 0.00 | 40 | 1019.2 |